Terminal Aerodrome Forecast
Issued by NWS Columbia, SC

Home | Current Version | Previous Version | Text Only | Print | Product List | Glossary On
Versions: 1 2 3 4 5 6 7 8 9 10 11 12 13 14 15 16 17 18 19 20 21 22 23 24 25 26 27 28 29 30 31 32 33 34 35 36 37 38 39 40 41 42 43 44 45 46 47 48 49 50
000
FTUS42 KCAE 261400 AAB
TAFAGS
TAF AMD
KAGS 261447Z 2615/2712 33010KT P6SM SCT015 OVC080
     FM261600 32012G20KT P6SM BKN040
     FM262200 28006KT P6SM SCT060 SCT250
     FM270600 25007KT P6SM SKC=

USA.gov is the U.S. government's official web portal to all federal, state and local government web resources and services.